This is the latest recevied weather packets stored in our database for station/object K7KAR-2. If no packets are shown the sender has not sent any weather packets the latest 10 day(s).
| Time | Temp. | Humidity | Pressure | Rain* | Wind** | Luminosity | Snow |
|---|---|---|---|---|---|---|---|
| 1788571539 | 26.11° C | 25% | 1009.5 hPa | 0 mm | - | 16 W/m² | - |
| 1788571236 | 26.11° C | 25% | 1009.7 hPa | 0 mm | - | 20 W/m² | - |
| 1788570932 | 26.11° C | 25% | 1009.6 hPa | 0 mm | - | 22 W/m² | - |
| 1788570635 | 26.11° C | 25% | 1009.7 hPa | 0 mm | - | 25 W/m² | - |
| 1788570321 | 26.67° C | 24% | 1009.8 hPa | 0 mm | - | 28 W/m² | - |
| 1788570018 | 26.67° C | 24% | 1009.6 hPa | 0 mm | - | 30 W/m² | - |
| 1788569713 | 27.22° C | 24% | 1009.5 hPa | 0 mm | - | 31 W/m² | - |
| 1788569409 | 27.22° C | 24% | 1009.2 hPa | 0 mm | - | 34 W/m² | - |
| 1788569109 | 27.22° C | 24% | 1009.2 hPa | 0 mm | - | 36 W/m² | - |
| 1788568804 | 27.78° C | 23% | 1009.3 hPa | 0 mm | - | 44 W/m² | - |
| 1788568500 | 27.78° C | 24% | 1009.4 hPa | 0 mm | - | 47 W/m² | - |
| 1788568195 | 27.78° C | 23% | 1009.6 hPa | 0 mm | - | 42 W/m² | - |
| 1788567890 | 28.33° C | 23% | 1009.3 hPa | 0 mm | - | 56 W/m² | - |
| 1788567584 | 28.89° C | 22% | 1009.1 hPa | 0 mm | - | 64 W/m² | - |
| 1788567279 | 29.44° C | 22% | 1008.8 hPa | 0 mm | - | 121 W/m² | - |
| 1788566973 | 29.44° C | 21% | 1008.9 hPa | 0 mm | - | 139 W/m² | - |
| 1788566669 | 30.56° C | 20% | 1008.7 hPa | 0 mm | - | 188 W/m² | - |
| 1788566364 | 30.56° C | 19% | 1008.8 hPa | 0 mm | - | 208 W/m² | - |
| 1788566060 | 31.67° C | 18% | 1008.7 hPa | 0 mm | - | 229 W/m² | - |
| 1788565760 | 33.89° C | 13% | 1008.8 hPa | 0 mm | - | 231 W/m² | - |
| 1788565454 | 33.89° C | 12% | 1008.6 hPa | 0 mm | - | 252 W/m² | - |
| 1788565150 | 33.89° C | 13% | 1008.4 hPa | 0 mm | - | 264 W/m² | - |
| 1788564845 | 33.89° C | 13% | 1008.3 hPa | 0 mm | - | 290 W/m² | - |
| 1788564542 | 34.44° C | 12% | 1008.5 hPa | 0 mm | - | 326 W/m² | - |
| 1788564238 | 33.89° C | 12% | 1008.5 hPa | 0 mm | - | 343 W/m² | - |
* Rain latest hour (hover to see other rain measurements)
** Current wind speed in m/s (hover to see current wind gust speed)